CAPE
0 0 0 0 0 0 0 0 0 0 0 0 0 0 0 0 0 0 924 1013 1056 1350 1740 1727 1315 1336 1413 1559 1752 1941 2103 2115 2080 2017 1977 2028 2096 2160 2121 2160 2159 2261 2265 1875 1678 1893 1801 1706 1821
0 0 0 0 0 0 0 0 0 0 0 0 0 0 0 0 0 12 478 1056 1163 1583 1890 1828 1306 1367 1475 1574 1815 2058 2303 2249 2125 2084 2097 2155 2240 2201 2188 2182 2112 2221 2257 1978 1766 1829 1791 1725 1715
0 0 0 0 0 0 0 0 0 0 0 0 0 0 0 0 0 0 1389 1296 1331 1743 1895 1992 1367 1384 1538 1633 1849 2052 2197 2082 2065 2083 2246 2311 2376 2302 2258 2109 2078 2297 2395 2202 1886 1857 1734 1567 1383
0 0 0 0 0 0 0 0 0 0 0 0 0 0 0 0 159 586 1116 1358 1592 1865 1913 1426 1337 1453 1565 1711 1894 2047 2013 1960 1983 2052 2278 2425 2480 2379 2211 2004 2132 2387 2477 2387 2028 1746 1503 1161 1062
0 0 0 0 0 0 0 0 0 0 0 0 0 0 0 0 0 459 1785 1404 1791 2086 2136 2132 1326 1494 1619 1855 1938 1893 1825 1827 1939 2084 2206 2349 2454 2316 2073 1964 2126 2231 2317 2206 1970 1588 1211 969 853
0 0 0 0 0 0 0 0 0 0 0 0 0 0 0 0 0 357 1825 1776 1897 2291 2387 2353 1461 1530 1646 1804 1797 1643 1620 1720 1896 2063 2173 2282 2291 2117 1998 1976 2062 1997 1977 1810 1504 1203 1029 791 698
0 0 0 0 0 0 0 0 0 0 0 0 0 0 0 0 0 137 1135 2140 2137 2451 2665 2682 2258 1886 1553 1664 1555 1428 1446 1595 1791 1978 2103 2193 2078 1904 1904 1976 1974 1900 1690 1427 1184 985 780 618 477
0 0 0 0 0 0 0 0 0 0 0 0 0 0 0 0 0 41 808 1640 2183 2350 2597 2752 2560 2342 2247 2117 1305 1258 1290 1400 1591 1775 1926 1896 1748 1696 1774 1879 1918 1708 1437 1178 1025 783 673 473 194
0 0 0 0 0 0 0 0 0 0 0 0 0 0 0 0 0 0 50 1111 2015 2195 2443 2655 2635 2502 2454 2367 1868 1119 1116 1234 1346 1539 1576 1605 2040 2157 2115 1867 1790 1524 1106 934 800 627 600 394 104
0 0 0 0 0 0 0 0 0 0 0 0 0 0 0 0 0 0 0 0 1101 2186 2251 2431 2579 2469 2412 2080 2300 2026 1755 1747 1841 1881 2161 2038 2060 2115 2008 1771 1529 1350 900 716 592 468 344 358 1019
0 0 0 0 0 0 0 0 0 0 0 0 0 0 0 0 0 0 0 0 9 1705 1944 2046 2360 2429 2337 1974 2126 2070 2064 1871 1926 1998 2107 1968 2131 2232 2075 2258 2090 1979 955 1061 692 836 1015 950 1079
0 0 0 0 0 0 0 0 0 0 0 0 0 0 0 0 0 0 0 0 0 526 1742 1763 1864 2204 2312 1842 1970 2032 2160 2194 2062 2139 2494 2446 2320 2273 2145 2128 1959 1909 1566 1363 920 830 917 1254 1191
0 0 0 0 0 0 0 0 0 0 0 0 0 0 0 0 0 0 0 0 0 0 1154 1535 1641 1947 2103 2017 1731 1992 2089 2119 2083 2183 2693 2461 2311 2353 2192 2238 2018 1916 1828 1511 1547 1339 1311 1342 1164
0 0 0 0 0 0 0 0 0 0 0 0 0 0 0 0 0 0 0 0 0 0 321 1199 1448 1728 1830 1804 1849 1935 2082 2050 2048 2107 2274 2502 2326 2359 2328 2268 2110 2286 2131 1741 1705 1575 1487 1300 1155
0 0 0 0 0 0 0 0 0 0 0 0 0 0 0 0 0 0 0 0 0 0 91 507 1372 1523 1619 1552 1913 1836 1729 1596 1815 1851 1903 1996 2339 2325 2258 2122 2219 1971 2100 1973 1764 1549 1472 1307 1189
0 0 0 0 0 0 0 0 0 0 0 0 0 0 0 0 0 0 0 0 0 0 0 188 824 1251 1420 1477 1709 1771 1697 1625 1548 1841 1937 2002 1858 2215 2104 1917 1940 2028 2262 1906 1843 1662 1509 1267 1212
0 0 0 0 0 0 0 0 0 0 0 0 0 0 0 0 0 0 0 0 0 0 0 0 863 1235 1336 1359 1585 1852 1688 1749 1813 1666 1698 1729 1782 1936 1856 1800 1607 2162 2015 1682 1768 1683 1560 1395 1217
0 0 0 0 0 0 0 0 0 0 0 0 0 0 0 0 0 0 0 0 0 0 0 0 376 1389 1485 1476 1614 1677 1680 1749 1717 1804 1924 1863 1473 1775 1585 1675 1294 1874 1972 1757 1611 1562 1654 1507 1522
0 0 0 0 0 0 0 0 0 0 0 0 0 0 0 0 0 0 0 0 0 0 0 0 56 1517 1865 1647 1746 1568 1500 1162 1361 1444 1309 1501 1260 1324 1380 1474 1396 1955 1821 1728 1382 1483 1381 1483 1381
0 0 0 0 0 0 0 0 0 0 0 0 0 0 0 0 0 0 0 0 0 0 0 0 0 1238 1717 1817 1886 1881 1912 1333 1117 1068 1144 1240 1039 1165 1094 1470 1785 1704 1697 1816 1119 1504 1329 1349 1400
0 0 0 0 0 0 0 0 0 0 0 0 0 2 0 5 5 1 0 0 0 0 0 0 0 566 1603 1746 1851 1766 1978 1419 1124 1201 1328 1595 1587 1351 987 1385 1672 1648 1581 1512 1066 1189 1160 929 945
0 0 0 0 0 5 3 1 0 0 0 3 0 12 6 5 17 21 6 0 0 0 0 0 0 114 1568 1717 1679 1606 1755 1413 1274 1534 1313 1363 1553 1531 1715 1863 1637 1682 1365 1188 1032 1142 1413 1658 991
0 0 0 0 3 3 0 1 0 0 11 2 3 4 7 20 28 14 0 40 0 0 0 0 0 0 1366 1974 1764 1878 1743 1730 1518 1396 1594 1836 1570 1566 1631 1680 1735 1115 1154 833 691 445 1058 1829 1881
0 0 4 1 1 1 0 0 1 7 32 16 11 11 11 21 26 10 4 104 189 92 38 6 0 2 1171 1984 2082 2163 1939 2040 2394 2234 2392 2046 1854 1469 1526 838 381 292 48 30 64 759 877 983 1503
6 18 13 11 12 2 0 3 9 7 10 34 22 30 15 16 19 17 13 11 4 0 14 1 0 0 0 0 35 1343 2434 2328 2311 2225 1797 1552 1088 589 358 594 90 3 0 5 0 232 629 825 1027
12 6 18 21 30 21 0 17 8 1 5 14 13 18 8 10 16 19 17 13 13 3 0 0 0 0 0 0 0 0 0 0 1 44 669 1249 1232 1437 1191 836 529 326 96 327 419 391 634 1089 1033
6 61 20 32 38 25 21 10 2 0 2 13 22 5 10 12 9 16 15 16 19 14 6 0 0 0 0 0 0 0 0 0 0 0 0 1 142 278 423 422 1026 826 635 795 817 842 804 874 866
4 18 45 61 50 18 66 4 19 12 22 12 16 15 15 9 10 9 17 20 20 21 14 15 4 0 0 0 0 0 0 0 0 0 0 0 0 0 0 0 11 0 339 826 1022 953 893 671 752
19 34 22 22 34 85 147 16 44 31 39 21 19 16 19 8 13 12 6 2 23 30 23 8 7 1 0 2 0 0 0 0 0 0 0 0 0 0 0 0 0 0 0 39 390 557 516 431 476
14 13 27 42 81 50 45 24 31 35 42 30 16 15 14 21 9 10 12 9 5 12 13 9 9 6 3 2 1 1 0 0 0 0 0 0 0 0 0 0 0 0 0 0 0 38 295 281 233
CIN
-0 -0 -0 -0 -0 -0 -0 -0 -0 -0 -0 -0 -0 -0 -0 -0 -0 -0 -144 -193 -245 -179 -264 -317 -387 -322 -264 -171 -97 -57 -54 -51 -48 -40 -32 -19 -10 -2 -0 -0 -0 -0 -0 -4 -12 -5 -9 -16 -11
-0 -0 -0 -0 -0 -0 -0 -0 -0 -0 -0 -0 -0 -0 -0 -0 -0 -64 -84 -232 -246 -188 -249 -269 -398 -347 -277 -194 -102 -53 -42 -40 -49 -45 -32 -18 -7 -3 -0 -0 -2 -0 -0 -3 -11 -6 -11 -16 -14
-0 -0 -0 -0 -0 -0 -0 -0 -0 -0 -0 -0 -0 -0 -0 -0 -0 -0 -135 -259 -230 -206 -216 -231 -396 -366 -299 -224 -120 -66 -52 -61 -57 -48 -23 -12 -2 -1 -0 -3 -4 -0 -0 -0 -5 -6 -15 -26 -35
-0 -0 -0 -0 -0 -0 -0 -0 -0 -0 -0 -0 -0 -0 -0 -0 -215 -207 -210 -280 -218 -200 -216 -402 -409 -365 -299 -221 -130 -76 -73 -74 -64 -54 -21 -4 -0 -0 -0 -5 -7 -0 -0 -0 -0 -15 -28 -60 -65
-0 -0 -0 -0 -0 -0 -0 -0 -0 -0 -0 -0 -0 -0 -0 -0 -0 -245 -205 -285 -195 -205 -203 -236 -401 -349 -286 -193 -129 -101 -93 -85 -65 -48 -29 -10 -0 -0 -8 -11 -7 -2 -0 -0 -3 -26 -63 -72 -84
-0 -0 -0 -0 -0 -0 -0 -0 -0 -0 -0 -0 -0 -0 -0 -0 -30 -279 -163 -179 -148 -124 -142 -176 -346 -315 -278 -197 -159 -160 -130 -94 -64 -43 -31 -21 -9 -19 -16 -18 -8 -17 -18 -22 -44 -67 -75 -89 -90
-0 -0 -0 -0 -0 -0 -0 -0 -0 -0 -0 -0 -0 -0 -0 -0 -0 -334 -210 -118 -140 -106 -92 -103 -147 -188 -256 -220 -204 -201 -160 -110 -69 -47 -35 -35 -36 -47 -25 -11 -12 -25 -43 -60 -77 -90 -103 -109 -112
-0 -0 -0 -0 -0 -0 -0 -0 -0 -0 -0 -0 -0 -0 -0 -0 -0 -328 -209 -145 -103 -113 -105 -86 -89 -88 -83 -85 -245 -234 -189 -129 -89 -63 -47 -54 -64 -63 -36 -13 -11 -36 -65 -82 -86 -108 -109 -124 -161
-0 -0 -0 -0 -0 -0 -0 -0 -0 -0 -0 -0 -0 -0 -0 -0 -0 -0 -101 -153 -92 -92 -84 -69 -59 -61 -50 -37 -102 -249 -229 -159 -118 -73 -67 -68 -0 -0 -0 -1 -21 -46 -90 -95 -101 -105 -102 -128 -185
-0 -0 -0 -0 -0 -0 -0 -0 -0 -0 -0 -0 -0 -0 -0 -0 -0 -0 -0 -0 -122 -76 -78 -71 -62 -57 -45 -62 -28 -44 -43 -27 -12 -8 -0 -0 -0 -0 -0 -6 -24 -45 -91 -98 -101 -103 -123 -117 -3
-0 -0 -0 -0 -0 -0 -0 -0 -0 -0 -0 -0 -0 -0 -0 -0 -0 -0 -0 -0 -67 -58 -67 -82 -66 -58 -52 -66 -48 -37 -31 -26 -7 -0 -0 -0 -0 -0 -0 -0 -0 -0 -49 -9 -41 -32 -1 -1 -0
-0 -0 -0 -0 -0 -0 -0 -0 -0 -0 -0 -0 -0 -0 -0 -0 -0 -0 -0 -0 -0 -149 -69 -104 -112 -90 -70 -75 -72 -65 -41 -24 -15 -1 -0 -0 -0 -0 -0 -0 -0 -0 -0 -0 -1 -2 -0 -0 -0
-0 -0 -0 -0 -0 -0 -0 -0 -0 -0 -0 -0 -0 -0 -0 -0 -0 -0 -0 -0 -0 -0 -128 -107 -112 -109 -95 -80 -87 -67 -53 -41 -30 -3 -0 -0 -0 -0 -0 -0 -0 -0 -0 -0 -0 -0 -0 -0 -0
-0 -0 -0 -0 -0 -0 -0 -0 -0 -0 -0 -0 -0 -0 -0 -0 -0 -0 -0 -0 -0 -0 -188 -126 -120 -103 -114 -129 -89 -82 -60 -60 -42 -27 -16 -7 -1 -0 -0 -0 -0 -0 -0 -0 -0 -0 -0 -0 -0
-0 -0 -0 -0 -0 -0 -0 -0 -0 -0 -0 -0 -0 -0 -0 -0 -0 -0 -0 -0 -0 -0 -215 -185 -102 -98 -142 -187 -99 -105 -95 -116 -98 -82 -69 -48 -10 -5 -3 -3 -0 -0 -0 -0 -0 -0 -0 -0 -0
-0 -0 -0 -0 -0 -0 -0 -0 -0 -0 -0 -0 -0 -0 -0 -0 -0 -0 -0 -0 -0 -0 -0 -210 -155 -128 -141 -178 -112 -105 -97 -120 -129 -96 -82 -75 -65 -13 -22 -21 -15 -0 -0 -0 -0 -0 -0 -0 -0
-0 -0 -0 -0 -0 -0 -0 -0 -0 -0 -0 -0 -0 -0 -0 -0 -0 -0 -0 -0 -0 -0 -0 -0 -134 -106 -134 -189 -133 -83 -79 -87 -96 -111 -115 -113 -113 -67 -60 -54 -62 -1 -6 -5 -0 -0 -0 -0 -0
-0 -0 -0 -0 -0 -0 -0 -0 -0 -0 -0 -0 -0 -0 -0 -0 -0 -0 -0 -0 -0 -0 -0 -0 -174 -84 -105 -149 -134 -90 -68 -77 -80 -91 -89 -93 -141 -114 -110 -70 -100 -30 -4 -13 -11 -3 -0 -0 -0
-0 -0 -0 -0 -0 -0 -0 -0 -0 -0 -0 -0 -0 -0 -0 -0 -0 -0 -0 -0 -0 -0 -0 -0 -53 -67 -6 -80 -93 -108 -143 -184 -110 -122 -148 -123 -172 -142 -125 -101 -98 -32 -12 -19 -40 -16 -8 -2 -0
-0 -0 -0 -0 -0 -0 -0 -0 -0 -0 -0 -0 -0 -0 -0 -0 -0 -0 -0 -0 -0 -0 -0 -0 -0 -52 -35 -20 -104 -120 -145 -191 -174 -164 -169 -156 -190 -153 -148 -94 -24 -29 -8 -5 -46 -5 -14 -2 -0
-0 -0 -0 -0 -0 -0 -0 -0 -0 -0 -0 -0 -0 -0 -0 -0 -0 -0 -0 -0 -0 -0 -0 -0 -0 -90 -33 -22 -43 -109 -85 -95 -106 -103 -109 -87 -92 -132 -156 -75 -20 -14 -11 -8 -35 -11 -2 -11 -11
-0 -0 -0 -0 -0 -0 -0 -0 -0 -0 -0 -0 -0 -0 -0 -0 -0 -0 -0 -0 -0 -0 -0 -0 -0 -50 -0 -13 -19 -124 -118 -133 -144 -128 -99 -76 -78 -79 -57 -21 -19 -14 -31 -23 -16 -5 -0 -0 -1
-0 -0 -0 -0 -0 -0 -0 -0 -0 -0 -0 -0 -0 -0 -0 -0 -0 -0 -0 -9 -0 -0 -0 -0 -0 -0 -0 -0 -13 -64 -117 -129 -113 -115 -47 -59 -93 -68 -52 -33 -14 -44 -10 -13 -3 -10 -0 -0 -0
-0 -0 -0 -0 -0 -0 -0 -0 -3 -0 -0 -0 -0 -0 -0 -0 -0 -0 -0 -7 -0 -0 -2 -0 -0 -20 -0 -3 -0 -17 -70 -67 -11 -43 -40 -55 -72 -95 -85 -161 -215 -163 -172 -129 -31 -13 -0 -0 -0
-0 -0 -0 -4 -0 -10 -0 -0 -0 -0 -0 -0 -0 -0 -0 -0 -0 -0 -0 -0 -0 -0 -23 -0 -0 -0 -0 -0 -183 -176 -5 -28 -20 -35 -79 -100 -148 -228 -280 -194 -325 -201 -0 -159 -0 -130 -53 -0 -0
-0 -0 -14 -22 -12 -34 -0 -30 -0 -0 -0 -0 -0 -0 -0 -0 -0 -0 -0 -0 -0 -0 -0 -0 -0 -0 -0 -0 -0 -0 -0 -0 -40 -366 -241 -122 -116 -65 -67 -109 -138 -136 -239 -148 -140 -73 -52 -13 -7
-0 -0 -0 -0 -45 -6 -32 -23 -0 -0 -0 -0 -0 -0 -0 -0 -0 -0 -0 -0 -0 -0 -0 -0 -0 -0 -0 -0 -0 -0 -0 -0 -0 -0 -0 -67 -269 -186 -154 -172 -73 -84 -100 -50 -52 -31 -69 -50 -26
-0 -0 -2 -2 -0 -0 -10 -3 -0 -0 -0 -0 -0 -0 -0 -0 -0 -0 -0 -0 -0 -0 -0 -0 -0 -0 -0 -0 -0 -0 -0 -0 -0 -0 -0 -0 -0 -0 -0 -0 -167 -0 -176 -67 -15 -16 -33 -26 -13
-0 -0 -0 -0 -0 -2 -0 -0 -0 -0 -0 -0 -0 -0 -0 -0 -0 -0 -0 -0 -0 -0 -0 -0 -0 -0 -0 -0 -0 -0 -0 -0 -0 -0 -0 -0 -0 -0 -0 -0 -0 -0 -0 -102 -69 -44 -60 -57 -44
-0 -0 -0 -0 -1 -3 -3 -0 -0 -0 -0 -0 -0 -0 -0 -0 -0 -0 -0 -0 -0 -0 -0 -0 -0 -0 -0 -0 -0 -0 -0 -0 -0 -0 -0 -0 -0 -0 -0 -0 -0 -0 -0 -0 -0 -159 -75 -41 -43
Wind_Speed
7 5 3 5 7 6 7 4 2 5 4 3 6 6 7 10 6 8 3 5 3 17 19 21 18 16 15 14 13 13 16 18 18 17 17 16 16 16 15 14 13 13 13 13 12 13 13 13 11
2 4 5 2 7 8 4 3 5 2 1 6 5 5 5 2 4 10 9 2 10 16 18 20 17 17 17 15 14 14 16 17 18 18 17 17 16 16 15 13 11 12 13 13 13 13 14 13 11
4 5 5 4 6 11 5 3 8 6 6 6 3 5 4 5 13 10 9 3 12 16 17 17 18 17 18 17 15 14 15 16 16 17 17 17 17 17 15 13 11 11 12 12 14 14 13 12 11
5 6 4 8 12 7 4 2 2 9 0 2 6 9 4 12 12 13 11 5 13 16 17 18 17 18 18 18 17 15 14 14 15 16 17 17 16 16 14 12 11 11 12 11 13 13 12 12 11
4 3 8 11 15 15 9 10 11 14 12 5 11 6 8 7 11 12 5 4 12 14 15 18 14 17 18 18 17 16 15 14 14 15 16 16 16 15 14 12 11 11 11 12 12 12 12 11 11
6 4 9 13 14 13 12 11 9 11 8 8 8 9 6 3 17 14 5 2 7 10 11 16 13 15 17 17 15 14 14 14 13 13 15 16 15 14 13 12 11 11 11 11 12 12 12 11 10
10 8 13 13 12 14 16 0 10 11 12 10 8 12 7 1 16 13 7 3 6 9 10 12 15 14 11 13 13 13 13 14 13 12 13 14 13 13 13 12 11 11 11 12 12 12 12 11 10
5 6 14 14 13 14 10 8 9 10 11 6 1 4 6 13 17 11 6 4 7 10 12 13 15 15 15 14 11 13 13 13 13 12 11 11 11 12 12 12 11 12 12 12 12 12 12 11 10
3 8 12 16 13 13 4 13 9 10 13 14 8 12 16 19 10 11 7 4 7 9 12 13 14 15 15 14 13 11 12 12 12 11 9 10 12 14 15 14 13 12 11 11 11 11 10 10 9
9 10 12 8 9 10 9 14 16 17 18 17 17 15 9 9 14 15 13 11 8 13 14 14 15 15 14 12 14 15 14 13 14 15 16 13 13 13 14 12 10 10 10 10 10 10 9 10 9
3 11 11 8 7 7 13 17 19 21 21 18 18 16 15 18 20 20 17 15 12 12 12 15 14 14 15 13 10 10 10 10 11 16 15 14 11 11 10 9 9 10 10 9 10 10 10 11 7
9 6 10 9 9 13 18 20 22 23 26 22 20 21 22 23 23 22 21 18 15 10 15 16 16 15 16 11 11 11 11 12 11 14 16 12 9 11 11 9 12 10 10 11 11 8 10 9 8
11 8 7 12 15 18 20 22 23 24 25 22 19 18 21 19 18 19 18 18 17 15 15 18 18 17 15 15 12 13 13 12 13 13 13 13 13 12 12 10 10 10 9 10 10 10 9 9 9
3 10 15 14 16 18 20 19 16 12 13 19 15 14 13 16 16 17 19 19 16 16 15 17 20 18 17 15 15 12 11 12 12 12 14 16 13 11 11 11 11 8 7 9 9 9 9 9 8
8 13 12 6 3 12 13 18 13 5 7 15 18 15 18 21 21 18 18 18 18 16 16 18 20 20 18 17 16 13 12 11 10 11 15 16 15 13 13 11 11 10 8 11 9 9 9 8 7
8 7 6 8 9 5 8 17 8 14 10 14 19 26 27 27 28 25 20 22 20 19 18 17 18 21 21 18 15 13 13 12 11 12 12 15 15 15 13 11 11 11 8 10 10 10 9 9 8
6 9 11 9 3 10 8 27 13 19 25 26 25 23 24 29 31 24 24 23 23 22 20 20 20 22 23 20 15 15 15 14 13 11 11 16 14 14 14 11 11 12 10 9 10 10 10 10 9
10 12 11 13 5 15 21 33 22 27 24 23 22 22 22 25 30 27 27 24 24 24 22 20 18 22 23 16 13 12 12 11 13 13 14 17 13 15 12 11 11 12 12 11 10 11 10 10 9
9 13 18 14 16 15 12 27 35 28 21 23 23 23 25 26 23 23 29 24 24 25 24 22 21 22 17 16 16 15 14 12 11 11 15 16 14 15 13 11 12 13 13 13 12 11 13 10 9
11 15 18 13 2 18 17 30 31 23 14 12 17 23 26 26 26 24 23 28 24 25 25 24 25 24 22 17 16 15 14 15 13 13 15 17 14 12 12 14 13 14 11 13 12 14 6 6 8
13 13 16 21 18 20 11 19 10 17 14 28 25 27 28 30 30 24 25 24 25 25 25 25 26 25 24 24 15 13 12 12 13 14 14 15 17 16 13 15 13 12 11 9 10 11 12 6 7
12 5 10 18 18 8 12 11 14 18 24 27 25 22 26 29 30 30 30 28 26 24 24 25 25 25 24 25 20 23 17 16 14 14 13 13 18 17 18 17 12 10 7 7 6 7 9 10 9
7 9 15 18 18 16 7 8 9 22 26 31 30 29 24 25 30 32 23 22 23 21 23 21 23 24 24 23 22 18 17 12 12 11 14 14 13 16 13 12 12 9 7 5 3 5 9 10 9
12 15 17 3 4 6 5 5 9 16 19 25 25 27 28 25 25 24 25 22 11 7 12 16 21 20 21 21 22 20 19 15 11 9 10 10 10 9 12 14 12 11 8 6 3 7 11 10 10
4 11 4 4 7 6 3 11 13 21 21 17 19 20 24 22 20 20 19 19 17 16 12 11 12 13 12 11 11 5 15 11 14 11 9 11 8 7 11 15 14 11 10 15 21 15 10 12 13
7 5 5 7 9 15 17 4 10 22 21 20 21 20 21 22 18 18 18 15 15 19 17 16 14 16 15 14 13 11 10 7 9 7 5 5 6 9 15 15 15 16 14 15 13 9 12 15 14
3 4 3 7 15 8 5 10 12 25 23 22 21 22 20 21 21 20 19 17 17 16 18 16 15 18 16 12 12 11 12 12 10 9 6 4 3 4 5 4 13 13 14 13 13 11 12 14 16
7 8 3 4 6 8 8 9 12 23 23 22 19 20 19 20 21 20 16 17 16 17 15 15 18 21 17 19 15 10 14 14 11 8 7 5 2 2 5 6 7 5 6 9 11 11 11 13 12
3 3 4 6 7 6 8 6 7 14 15 18 18 17 17 19 19 18 17 16 18 17 17 18 16 18 19 13 12 18 16 14 11 9 7 6 6 4 5 7 8 8 11 12 11 11 11 13 14
6 8 8 5 2 9 9 6 12 12 13 14 16 15 16 15 16 16 17 18 19 19 20 21 20 17 18 17 17 16 13 12 11 11 9 8 8 7 5 7 8 10 12 13 15 16 12 13 15
Wind_Direction
240 221 227 234 240 245 245 205 313 211 196 167 324 271 293 319 312 321 52 302 212 167 159 163 153 154 142 138 135 142 146 147 149 147 143 142 141 143 139 141 140 141 141 139 133 125 126 124 116
221 202 216 247 255 235 253 110 222 233 54 309 270 275 239 310 305 304 308 72 185 165 160 163 152 154 144 141 140 145 148 148 148 146 144 144 144 145 143 141 140 141 138 138 134 129 125 120 110
230 247 251 252 252 252 332 106 87 71 306 274 313 314 303 338 348 322 12 215 172 164 167 153 154 155 147 146 145 146 147 146 148 147 146 147 149 148 147 142 143 140 141 142 138 133 127 116 116
196 187 192 244 242 256 279 122 280 296 137 183 327 307 292 54 346 329 323 190 176 167 168 140 156 154 151 149 148 149 149 147 148 148 149 152 153 152 146 146 145 146 145 145 141 134 127 123 124
210 246 240 242 251 261 251 263 289 297 301 287 312 297 298 52 12 6 346 189 186 169 169 163 159 154 151 152 153 150 149 148 151 152 153 156 156 154 149 151 150 148 146 142 137 134 128 129 127
203 278 232 247 242 246 266 282 287 292 301 305 274 300 290 105 14 7 356 205 201 183 173 167 160 155 153 155 155 152 150 150 153 157 158 158 158 156 156 156 160 151 141 139 138 135 134 132 130
264 245 263 277 269 261 268 235 281 302 297 302 336 284 300 36 4 352 354 232 195 194 188 171 177 164 149 151 154 155 155 155 157 160 165 160 159 158 160 158 161 151 147 146 144 141 141 136 135
257 262 261 248 263 265 286 283 294 297 305 315 301 299 307 341 343 339 355 283 206 194 194 183 183 178 175 171 158 159 159 161 159 162 164 161 160 160 159 155 162 159 155 153 150 148 149 143 137
247 250 252 258 263 273 304 298 294 314 279 282 301 288 298 310 324 327 321 269 230 212 203 192 188 186 182 180 174 167 167 164 158 159 155 158 182 178 166 181 156 166 159 158 153 155 153 146 143
236 252 282 330 293 287 293 286 304 300 289 285 291 281 278 310 315 311 307 306 244 220 208 199 196 189 187 184 182 188 183 186 187 182 178 186 188 187 184 163 161 167 157 158 153 150 146 181 174
213 262 336 256 304 287 288 285 296 290 279 280 287 285 282 298 299 296 292 288 285 228 209 209 198 194 195 189 187 191 187 188 191 188 182 193 191 185 192 171 178 181 175 179 175 165 190 204 196
263 261 281 294 293 296 287 294 280 276 281 285 283 283 283 286 282 280 279 280 276 242 219 204 204 200 201 195 187 190 198 192 192 192 190 191 193 186 196 186 187 187 181 186 193 189 206 194 212
244 285 285 282 281 276 282 274 274 281 284 290 286 284 279 275 275 280 280 277 272 259 222 215 206 203 200 207 194 194 201 195 196 193 193 200 196 191 193 195 188 198 179 192 193 200 203 201 201
356 280 286 286 278 283 271 279 275 261 290 297 292 294 296 295 295 290 279 275 267 257 229 217 209 205 201 202 206 192 203 190 202 194 191 204 201 192 196 198 201 197 178 196 200 204 202 209 206
275 286 288 290 184 294 306 272 240 322 283 285 290 286 292 287 282 272 281 278 268 263 244 216 212 203 196 203 207 195 193 200 196 197 200 197 206 194 194 208 201 189 196 203 206 199 212 211 212
275 267 276 141 292 315 300 284 293 333 291 279 281 297 294 285 279 275 261 269 274 269 252 234 204 203 199 197 210 198 193 202 199 204 197 196 200 204 200 191 211 192 178 200 205 201 205 215 215
181 303 317 315 276 305 297 294 297 289 284 289 283 282 282 288 283 280 273 263 260 261 257 242 210 209 203 197 199 206 202 206 197 202 205 202 195 204 200 199 198 197 186 200 206 206 208 209 214
318 311 296 299 322 289 297 289 299 292 295 289 287 283 278 277 279 281 276 271 266 260 255 252 221 208 201 192 190 202 204 209 205 200 206 198 203 197 198 199 198 205 199 193 200 201 209 214 208
299 287 287 302 318 315 300 294 292 295 300 295 299 299 298 294 295 273 279 271 262 260 260 247 238 202 200 193 185 189 192 200 219 208 209 203 203 204 194 201 198 207 210 199 200 194 203 205 211
282 287 294 310 245 323 304 294 288 292 313 306 320 312 303 302 298 294 272 270 262 257 257 249 244 205 201 203 191 189 187 196 202 209 202 204 200 194 199 206 207 204 211 202 199 199 182 192 188
275 283 292 297 313 291 306 288 343 316 342 5 351 332 323 313 300 291 277 262 261 254 251 249 240 218 203 209 196 192 182 195 199 204 211 203 194 188 196 207 218 202 212 204 199 201 195 194 195
282 330 295 299 313 315 340 293 311 1 8 348 347 354 348 339 322 303 281 263 259 252 253 247 242 223 206 202 202 191 187 191 199 205 203 203 202 200 194 209 201 204 187 193 196 206 212 214 203
288 313 297 290 287 311 211 224 310 8 356 358 357 354 347 344 332 336 330 260 256 246 244 250 232 229 209 198 207 193 192 193 194 199 200 202 202 204 202 197 185 171 163 144 188 217 226 233 226
286 291 277 302 302 255 248 250 64 12 358 355 354 355 350 346 343 351 0 357 1 332 266 240 234 238 216 193 201 196 195 188 185 171 173 189 184 190 175 159 149 148 174 153 201 224 228 230 245
252 301 286 237 207 275 124 284 56 19 11 353 352 352 355 342 340 354 9 10 3 36 25 45 66 61 64 86 74 157 191 157 166 170 169 166 171 168 170 172 173 186 185 204 218 211 207 220 229
314 315 324 298 318 318 304 273 73 22 9 8 0 358 1 352 346 353 5 10 14 27 32 47 50 59 55 61 67 61 76 91 94 85 115 153 167 187 187 197 204 217 204 200 191 195 214 219 225
73 249 49 272 260 259 281 64 145 5 9 6 358 6 0 356 352 355 3 8 17 22 32 31 52 55 55 64 66 65 73 81 84 73 77 122 140 171 227 238 218 220 211 209 206 218 219 207 222
285 344 245 207 280 312 300 72 358 356 358 358 359 359 357 359 354 356 357 3 14 26 26 34 45 46 44 41 48 54 53 57 63 67 62 59 350 279 272 262 245 258 269 240 229 226 221 218 223
323 255 289 282 263 292 309 83 3 356 354 357 356 353 355 0 356 356 355 8 16 23 22 32 34 44 47 33 39 41 38 41 51 51 41 18 338 327 301 286 279 263 249 241 237 232 225 223 223
69 355 299 277 287 289 279 92 19 4 358 358 355 351 352 360 1 3 0 11 19 24 27 28 26 35 36 28 31 37 33 34 39 33 23 2 340 313 302 285 270 266 259 252 249 242 232 230 225